Location: Bukit Lungun
(2.6833°N, 113.9667°E)
Time: 13:22:09
(UTC+00:00)

Cosmos 1709 Rocket - Pass Details

Date: 02 March 2021
Orbit: 949 x 1001 km, 82.9° (Epoch: 14 April)

Event Time Altitude Azimuth Distance (km) Brightness Sun altitude
Rises 21:42:12 0° 353° (N) 3,709 6.9 -13.7°
Reaches altitude 10° 21:44:44 10° 351° (N) 2,761 6.2 -13.1°
Maximum altitude 21:51:04 74° 267° (W) 1,036 4.0 -11.5°
Drops below altitude 10° 21:57:22 10° 183° (S) 2,750 6.4 -9.9°
Sets 21:59:53 0° 181° (S) 3,693 7.1 -9.3°
